AAL302 MYGF-KMIA

Flight info

Callsign AAL302
Flight time N/A
Altitude 14000
Route MUNRO BNFSH3
Aircraft A20N/M-SDE2E3FGHIRWXY/LB1

Departure

Time 2026-04-21 00:54
Airport Grand Bahama International Airport (MYGF)

Arrival

Time N/A
Airport Miami International Airport (KMIA)
Time Latitude Longitude Altitude Speed Heading
2026-04-21 00:23 26.54836 -78.70279 28 ft 0 kts 277°
2026-04-21 00:48 26.54836 -78.70280 24 ft 1 kts 277°
2026-04-21 00:48 26.54855 -78.70290 28 ft 8 kts 347°
2026-04-21 00:48 26.54927 -78.70292 26 ft 9 kts
2026-04-21 00:48 26.54964 -78.70347 25 ft 11 kts 275°
2026-04-21 00:49 26.54965 -78.70449 24 ft 15 kts 272°
2026-04-21 00:49 26.54969 -78.70580 24 ft 19 kts 272°
2026-04-21 00:49 26.54975 -78.70737 26 ft 22 kts 272°
2026-04-21 00:49 26.54978 -78.70912 24 ft 20 kts 272°
2026-04-21 00:50 26.54986 -78.70988 24 ft 13 kts 295°
2026-04-21 00:50 26.55042 -78.71009 27 ft 0 kts
2026-04-21 00:52 26.55071 -78.71009 24 ft 9 kts
2026-04-21 00:52 26.55133 -78.71004 27 ft 8 kts 17°
2026-04-21 00:53 26.55154 -78.70981 26 ft 0 kts 59°
2026-04-21 00:53 26.55212 -78.70867 27 ft 56 kts 61°
2026-04-21 00:53 26.55535 -78.70214 28 ft 132 kts 61°
2026-04-21 00:53 26.56074 -78.69126 130 ft 181 kts 61°
2026-04-21 00:54 26.56707 -78.67824 518 ft 200 kts 62°
2026-04-21 00:54 26.57413 -78.66386 824 ft 220 kts 59°
2026-04-21 00:54 26.58233 -78.64971 1522 ft 215 kts 46°
2026-04-21 00:54 26.59433 -78.63909 1865 ft 232 kts 28°
2026-04-21 00:55 26.61065 -78.63503 2513 ft 249 kts
2026-04-21 00:55 26.62746 -78.64005 3667 ft 257 kts 335°
2026-04-21 00:55 26.64082 -78.65365 4775 ft 266 kts 307°